Time,TemperatureF,DewpointF,PressureIn,WindDirection,WindDirectionDegrees,WindSpeedMPH,WindSpeedGustMPH,Humidity,HourlyPrecipIn,Conditions,Clouds,dailyrainin,SoftwareType,DateUTC
2013-08-12 00:00:00,67.5,61.8,30.04,West,264,0.0,0.0,82,0.00,,,0.00,VWS V14.01,2013-08-12 04:00:00,
2013-08-12 00:01:00,67.3,61.6,30.04,West,264,0.0,0.0,82,0.00,,,0.00,VWS V14.01,2013-08-12 04:01:00,
2013-08-12 00:02:00,67.3,61.6,30.04,West,264,0.0,0.0,82,0.00,,,0.00,VWS V14.01,2013-08-12 04:02:00,
2013-08-12 00:03:00,67.3,61.6,30.04,West,264,0.0,0.0,82,0.00,,,0.00,VWS V14.01,2013-08-12 04:03:00,
2013-08-12 00:04:00,67.3,61.6,30.04,West,264,0.0,0.0,82,0.00,,,0.00,VWS V14.01,2013-08-12 04:04:00,
2013-08-12 00:05:00,67.3,61.6,30.04,West,264,0.0,0.0,82,0.00,,,0.00,VWS V14.01,2013-08-12 04:05:00,
2013-08-12 00:09:00,67.1,61.4,30.04,West,264,0.0,0.0,82,0.00,,,0.00,VWS V14.01,2013-08-12 04:09:00,
2013-08-12 00:10:00,67.1,61.4,30.04,West,264,0.0,0.0,82,0.00,,,0.00,VWS V14.01,2013-08-12 04:10:00,
2013-08-12 00:14:00,67.1,61.4,30.04,West,264,0.0,0.0,82,0.00,,,0.00,VWS V14.01,2013-08-12 04:14:00,
2013-08-12 00:15:00,67.1,61.4,30.04,West,264,0.0,0.0,82,0.00,,,0.00,VWS V14.01,2013-08-12 04:15:00,
2013-08-12 00:19:00,67.1,61.4,30.04,West,264,0.0,0.0,82,0.00,,,0.00,VWS V14.01,2013-08-12 04:19:00,
2013-08-12 00:20:00,67.1,61.4,30.04,West,264,0.0,0.0,82,0.00,,,0.00,VWS V14.01,2013-08-12 04:20:00,
2013-08-12 00:24:00,67.1,61.4,30.04,West,264,0.0,0.0,82,0.00,,,0.00,VWS V14.01,2013-08-12 04:24:00,
2013-08-12 00:25:00,67.1,61.4,30.04,West,264,0.0,0.0,82,0.00,,,0.00,VWS V14.01,2013-08-12 04:25:00,
2013-08-12 00:29:00,67.1,61.4,30.04,West,263,0.0,0.0,82,0.00,,,0.00,VWS V14.01,2013-08-12 04:29:00,
2013-08-12 00:30:00,67.1,61.4,30.04,West,263,0.0,0.0,82,0.00,,,0.00,VWS V14.01,2013-08-12 04:30:00,
2013-08-12 00:34:00,67.3,61.6,30.04,West,264,0.0,0.0,82,0.00,,,0.00,VWS V14.01,2013-08-12 04:34:00,
2013-08-12 00:35:00,67.3,61.6,30.04,West,264,0.0,0.0,82,0.00,,,0.00,VWS V14.01,2013-08-12 04:35:00,
2013-08-12 00:39:00,67.3,62.0,30.04,West,264,0.0,0.0,83,0.00,,,0.00,VWS V14.01,2013-08-12 04:39:00,
2013-08-12 00:40:00,67.3,62.0,30.04,West,264,0.0,0.0,83,0.00,,,0.00,VWS V14.01,2013-08-12 04:40:00,
2013-08-12 00:44:00,66.9,61.9,30.04,West,264,0.0,0.0,84,0.12,,,0.12,VWS V14.01,2013-08-12 04:44:00,
2013-08-12 00:45:00,66.9,61.9,30.04,West,264,0.0,0.0,84,0.12,,,0.12,VWS V14.01,2013-08-12 04:45:00,
2013-08-12 00:49:00,66.6,61.6,30.04,West,264,0.0,0.0,84,0.12,,,0.12,VWS V14.01,2013-08-12 04:49:00,
2013-08-12 00:50:00,66.6,61.6,30.04,West,264,0.0,0.0,84,0.12,,,0.12,VWS V14.01,2013-08-12 04:50:00,
2013-08-12 00:54:00,66.6,61.6,30.04,West,264,0.0,0.0,84,0.12,,,0.12,VWS V14.01,2013-08-12 04:54:00,
2013-08-12 00:55:00,66.6,61.6,30.04,West,264,0.0,0.0,84,0.12,,,0.12,VWS V14.01,2013-08-12 04:55:00,
2013-08-12 00:59:00,66.6,61.9,30.04,West,264,0.0,0.0,85,0.12,,,0.12,VWS V14.01,2013-08-12 04:59:00,
2013-08-12 01:00:00,66.6,61.9,30.04,West,264,0.0,0.0,85,0.12,,,0.12,VWS V14.01,2013-08-12 05:00:00,
2013-08-12 01:04:00,66.6,61.9,30.04,West,264,0.0,0.0,85,0.12,,,0.12,VWS V14.01,2013-08-12 05:04:00,
2013-08-12 01:05:00,66.6,61.9,30.04,West,264,0.0,0.0,85,0.12,,,0.12,VWS V14.01,2013-08-12 05:05:00,
2013-08-12 01:09:00,66.4,62.1,30.04,West,264,0.0,0.0,86,0.12,,,0.12,VWS V14.01,2013-08-12 05:09:00,
2013-08-12 01:10:00,66.4,62.1,30.04,West,264,0.0,0.0,86,0.12,,,0.12,VWS V14.01,2013-08-12 05:10:00,
2013-08-12 01:14:00,66.4,62.1,30.04,West,264,0.0,0.0,86,0.12,,,0.12,VWS V14.01,2013-08-12 05:14:00,
2013-08-12 01:15:00,66.4,62.1,30.04,West,264,0.0,0.0,86,0.12,,,0.12,VWS V14.01,2013-08-12 05:15:00,
2013-08-12 01:19:00,66.4,62.4,30.04,West,264,0.0,0.0,87,0.12,,,0.12,VWS V14.01,2013-08-12 05:19:00,
2013-08-12 01:20:00,66.4,62.4,30.04,West,264,0.0,0.0,87,0.12,,,0.12,VWS V14.01,2013-08-12 05:20:00,
2013-08-12 01:24:00,66.2,62.2,30.04,West,264,0.0,0.0,87,0.12,,,0.12,VWS V14.01,2013-08-12 05:24:00,
2013-08-12 01:25:00,66.2,62.2,30.04,West,264,0.0,0.0,87,0.12,,,0.12,VWS V14.01,2013-08-12 05:25:00,
2013-08-12 01:29:00,66.0,62.4,30.04,West,264,0.0,0.0,88,0.12,,,0.12,VWS V14.01,2013-08-12 05:29:00,
2013-08-12 01:30:00,66.0,62.4,30.04,West,264,0.0,0.0,88,0.12,,,0.12,VWS V14.01,2013-08-12 05:30:00,
2013-08-12 01:34:00,65.8,62.2,30.04,West,264,0.0,0.0,88,0.12,,,0.12,VWS V14.01,2013-08-12 05:34:00,
2013-08-12 01:35:00,65.8,62.2,30.04,West,264,0.0,0.0,88,0.12,,,0.12,VWS V14.01,2013-08-12 05:35:00,
2013-08-12 01:39:00,66.0,62.4,30.04,West,264,0.0,0.0,88,0.12,,,0.12,VWS V14.01,2013-08-12 05:39:00,
2013-08-12 01:40:00,66.0,62.4,30.04,West,264,0.0,0.0,88,0.12,,,0.12,VWS V14.01,2013-08-12 05:40:00,
2013-08-12 01:44:00,65.7,62.3,30.04,West,264,0.0,0.0,89,0.00,,,0.12,VWS V14.01,2013-08-12 05:44:00,
2013-08-12 01:45:00,65.7,62.3,30.04,West,264,0.0,0.0,89,0.12,,,0.12,VWS V14.01,2013-08-12 05:45:00,
2013-08-12 01:49:00,65.7,62.3,30.04,West,264,0.0,0.0,89,0.00,,,0.12,VWS V14.01,2013-08-12 05:49:00,
2013-08-12 01:50:00,65.7,62.3,30.04,West,264,0.0,0.0,89,0.00,,,0.12,VWS V14.01,2013-08-12 05:50:00,
2013-08-12 01:54:00,65.8,62.5,30.04,West,264,0.0,0.0,89,0.00,,,0.12,VWS V14.01,2013-08-12 05:54:00,
2013-08-12 01:55:00,65.8,62.5,30.04,West,264,0.0,0.0,89,0.00,,,0.12,VWS V14.01,2013-08-12 05:55:00,
2013-08-12 01:59:00,65.8,62.5,30.04,West,264,0.0,0.0,89,0.00,,,0.12,VWS V14.01,2013-08-12 05:59:00,
2013-08-12 02:00:00,65.8,62.5,30.04,West,264,0.0,0.0,89,0.00,,,0.12,VWS V14.01,2013-08-12 06:00:00,
2013-08-12 02:04:00,65.8,62.8,30.04,West,264,0.0,0.0,90,0.00,,,0.12,VWS V14.01,2013-08-12 06:04:00,
2013-08-12 02:05:00,65.8,62.8,30.04,West,264,0.0,0.0,90,0.00,,,0.12,VWS V14.01,2013-08-12 06:05:00,
2013-08-12 02:09:00,65.8,62.8,30.04,West,264,0.0,0.0,90,0.00,,,0.12,VWS V14.01,2013-08-12 06:09:00,
2013-08-12 02:10:00,65.8,62.8,30.04,West,264,0.0,0.0,90,0.00,,,0.12,VWS V14.01,2013-08-12 06:10:00,
2013-08-12 02:14:00,65.8,62.8,30.04,West,264,0.0,0.0,90,0.00,,,0.12,VWS V14.01,2013-08-12 06:14:00,
2013-08-12 02:15:00,65.8,62.8,30.04,West,264,0.0,0.0,90,0.00,,,0.12,VWS V14.01,2013-08-12 06:15:00,
2013-08-12 02:19:00,65.7,62.7,30.04,West,264,0.0,0.0,90,0.00,,,0.12,VWS V14.01,2013-08-12 06:19:00,
2013-08-12 02:20:00,65.7,62.7,30.04,West,264,0.0,0.0,90,0.00,,,0.12,VWS V14.01,2013-08-12 06:20:00,
2013-08-12 02:24:00,65.3,62.3,30.04,West,264,0.0,0.0,90,0.00,,,0.12,VWS V14.01,2013-08-12 06:24:00,
2013-08-12 02:25:00,65.3,62.3,30.04,West,264,0.0,0.0,90,0.00,,,0.12,VWS V14.01,2013-08-12 06:25:00,
2013-08-12 02:29:00,65.5,62.5,30.04,West,264,0.0,0.0,90,0.00,,,0.12,VWS V14.01,2013-08-12 06:29:00,
2013-08-12 02:30:00,65.5,62.5,30.04,West,264,0.0,0.0,90,0.00,,,0.12,VWS V14.01,2013-08-12 06:30:00,
2013-08-12 02:34:00,65.3,62.3,30.04,West,264,0.0,0.0,90,0.00,,,0.12,VWS V14.01,2013-08-12 06:34:00,
2013-08-12 02:35:00,65.3,62.3,30.04,West,264,0.0,0.0,90,0.00,,,0.12,VWS V14.01,2013-08-12 06:35:00,
2013-08-12 02:40:00,65.3,62.6,30.04,West,264,0.0,0.0,91,0.00,,,0.12,VWS V14.01,2013-08-12 06:40:00,
2013-08-12 02:45:00,65.5,62.8,30.04,West,264,0.0,0.0,91,0.00,,,0.12,VWS V14.01,2013-08-12 06:45:00,
2013-08-12 02:50:00,65.7,63.0,30.04,West,264,0.0,0.0,91,0.00,,,0.12,VWS V14.01,2013-08-12 06:50:00,
2013-08-12 02:55:00,65.8,63.1,30.04,West,264,0.0,0.0,91,0.00,,,0.12,VWS V14.01,2013-08-12 06:55:00,
2013-08-12 03:00:00,66.0,63.6,30.04,West,264,0.0,0.0,92,0.00,,,0.12,VWS V14.01,2013-08-12 07:00:00,
2013-08-12 03:05:00,66.0,63.6,30.04,West,264,0.0,0.0,92,0.00,,,0.12,VWS V14.01,2013-08-12 07:05:00,
2013-08-12 03:10:00,66.0,63.6,30.04,West,264,0.0,0.0,92,0.00,,,0.12,VWS V14.01,2013-08-12 07:10:00,
2013-08-12 03:15:00,65.8,63.5,30.04,West,264,0.0,0.0,92,0.00,,,0.12,VWS V14.01,2013-08-12 07:15:00,
2013-08-12 03:20:00,65.8,63.5,30.04,West,264,0.0,0.0,92,0.00,,,0.12,VWS V14.01,2013-08-12 07:20:00,
2013-08-12 03:25:00,65.8,63.5,30.01,West,264,0.0,0.0,92,0.00,,,0.12,VWS V14.01,2013-08-12 07:25:00,
2013-08-12 03:30:00,66.0,63.6,30.01,West,264,0.0,0.0,92,0.00,,,0.12,VWS V14.01,2013-08-12 07:30:00,
2013-08-12 03:35:00,66.0,63.6,30.01,West,264,0.0,0.0,92,0.00,,,0.12,VWS V14.01,2013-08-12 07:35:00,
2013-08-12 03:40:00,66.2,63.8,30.01,West,264,0.0,0.0,92,0.00,,,0.12,VWS V14.01,2013-08-12 07:40:00,
2013-08-12 03:45:00,66.2,63.8,30.01,West,264,0.0,0.0,92,0.00,,,0.12,VWS V14.01,2013-08-12 07:45:00,
2013-08-12 03:50:00,66.2,63.8,30.01,West,264,0.0,0.0,92,0.00,,,0.12,VWS V14.01,2013-08-12 07:50:00,
2013-08-12 03:55:00,66.2,63.8,30.01,West,264,0.0,0.0,92,0.00,,,0.12,VWS V14.01,2013-08-12 07:55:00,
2013-08-12 04:00:00,66.2,63.8,30.01,West,264,0.0,0.0,92,0.00,,,0.12,VWS V14.01,2013-08-12 08:00:00,
2013-08-12 04:05:00,66.2,63.8,30.01,West,264,0.0,0.0,92,0.00,,,0.12,VWS V14.01,2013-08-12 08:05:00,
2013-08-12 04:10:00,66.2,63.8,30.01,West,264,0.0,0.0,92,0.00,,,0.12,VWS V14.01,2013-08-12 08:10:00,
2013-08-12 04:15:00,66.2,64.1,30.01,West,264,0.0,0.0,93,0.00,,,0.12,VWS V14.01,2013-08-12 08:15:00,
2013-08-12 04:20:00,66.4,64.3,30.01,West,264,0.0,0.0,93,0.00,,,0.12,VWS V14.01,2013-08-12 08:20:00,
2013-08-12 04:25:00,66.6,64.5,30.01,West,264,0.0,0.0,93,0.00,,,0.12,VWS V14.01,2013-08-12 08:25:00,
2013-08-12 04:30:00,66.6,64.5,30.01,West,264,0.0,0.0,93,0.00,,,0.12,VWS V14.01,2013-08-12 08:30:00,
2013-08-12 04:35:00,66.4,64.3,30.01,West,264,0.0,0.0,93,0.00,,,0.12,VWS V14.01,2013-08-12 08:35:00,
2013-08-12 04:40:00,66.4,64.3,30.01,West,264,0.0,0.0,93,0.00,,,0.12,VWS V14.01,2013-08-12 08:40:00,
2013-08-12 04:45:00,66.4,64.3,30.01,West,264,0.0,0.0,93,0.00,,,0.12,VWS V14.01,2013-08-12 08:45:00,
2013-08-12 04:50:00,66.6,64.5,30.01,West,264,0.0,0.0,93,0.00,,,0.12,VWS V14.01,2013-08-12 08:50:00,
2013-08-12 04:55:00,66.6,64.5,30.01,West,264,0.0,0.0,93,0.00,,,0.12,VWS V14.01,2013-08-12 08:55:00,
2013-08-12 05:00:00,66.7,65.0,30.01,West,264,0.0,0.0,94,0.00,,,0.12,VWS V14.01,2013-08-12 09:00:00,
2013-08-12 05:05:00,66.7,65.0,30.01,West,264,0.0,0.0,94,0.00,,,0.12,VWS V14.01,2013-08-12 09:05:00,
2013-08-12 05:10:00,66.7,65.0,30.01,West,264,0.0,0.0,94,0.00,,,0.12,VWS V14.01,2013-08-12 09:10:00,
2013-08-12 05:15:00,66.6,64.8,30.01,West,264,0.0,0.0,94,0.00,,,0.12,VWS V14.01,2013-08-12 09:15:00,
2013-08-12 05:20:00,66.6,64.8,30.01,West,264,0.0,0.0,94,0.00,,,0.12,VWS V14.01,2013-08-12 09:20:00,
2013-08-12 05:25:00,66.7,65.0,30.01,West,264,0.0,0.0,94,0.00,,,0.12,VWS V14.01,2013-08-12 09:25:00,
2013-08-12 05:30:00,66.6,64.8,30.01,West,264,0.0,0.0,94,0.00,,,0.12,VWS V14.01,2013-08-12 09:30:00,
2013-08-12 05:35:00,66.6,64.8,30.01,West,264,0.0,0.0,94,0.04,,,0.16,VWS V14.01,2013-08-12 09:35:00,
2013-08-12 05:40:00,66.6,64.8,30.01,West,264,0.0,0.0,94,0.04,,,0.16,VWS V14.01,2013-08-12 09:40:00,
2013-08-12 05:45:00,66.6,64.8,30.01,West,264,0.0,0.0,94,0.04,,,0.16,VWS V14.01,2013-08-12 09:45:00,
2013-08-12 05:50:00,66.4,64.6,30.01,West,264,0.0,0.0,94,0.04,,,0.16,VWS V14.01,2013-08-12 09:50:00,
2013-08-12 05:55:00,66.4,64.6,30.04,West,264,0.0,0.0,94,0.04,,,0.16,VWS V14.01,2013-08-12 09:55:00,
2013-08-12 06:00:00,66.4,64.6,30.04,West,264,0.0,0.0,94,0.08,,,0.20,VWS V14.01,2013-08-12 10:00:00,
2013-08-12 06:05:00,66.2,64.4,30.04,West,264,0.0,0.0,94,0.08,,,0.20,VWS V14.01,2013-08-12 10:05:00,
2013-08-12 06:10:00,66.0,64.2,30.04,West,264,0.0,0.0,94,0.08,,,0.20,VWS V14.01,2013-08-12 10:10:00,
2013-08-12 06:15:00,66.0,64.2,30.04,West,264,0.0,0.0,94,0.08,,,0.20,VWS V14.01,2013-08-12 10:15:00,
2013-08-12 06:20:00,66.0,64.2,30.04,West,264,0.0,0.0,94,0.08,,,0.20,VWS V14.01,2013-08-12 10:20:00,
2013-08-12 06:25:00,66.0,64.2,30.01,West,264,0.0,0.0,94,0.08,,,0.20,VWS V14.01,2013-08-12 10:25:00,
2013-08-12 06:30:00,66.0,64.2,30.01,West,264,0.0,0.0,94,0.08,,,0.20,VWS V14.01,2013-08-12 10:30:00,
2013-08-12 06:35:00,66.0,64.2,30.01,West,264,0.0,0.0,94,0.04,,,0.20,VWS V14.01,2013-08-12 10:35:00,
2013-08-12 06:40:00,66.0,64.2,30.01,West,264,0.0,0.0,94,0.04,,,0.20,VWS V14.01,2013-08-12 10:40:00,
2013-08-12 06:45:00,65.8,64.4,30.01,West,264,0.0,0.0,95,0.04,,,0.20,VWS V14.01,2013-08-12 10:45:00,
2013-08-12 06:50:00,65.8,64.4,30.01,West,264,0.0,0.0,95,0.04,,,0.20,VWS V14.01,2013-08-12 10:50:00,
2013-08-12 06:55:00,65.8,64.4,30.01,West,264,0.0,0.0,95,0.04,,,0.20,VWS V14.01,2013-08-12 10:55:00,
2013-08-12 07:00:00,65.8,64.4,30.01,West,264,0.0,0.0,95,0.04,,,0.20,VWS V14.01,2013-08-12 11:00:00,
2013-08-12 07:05:00,65.8,64.4,30.01,West,264,0.0,0.0,95,0.00,,,0.20,VWS V14.01,2013-08-12 11:05:00,
2013-08-12 07:10:00,65.8,64.4,30.01,West,264,0.0,0.0,95,0.00,,,0.20,VWS V14.01,2013-08-12 11:10:00,
2013-08-12 07:15:00,65.8,64.4,30.01,West,264,0.0,0.0,95,0.00,,,0.20,VWS V14.01,2013-08-12 11:15:00,
2013-08-12 07:20:00,65.8,64.4,30.01,West,264,0.0,0.0,95,0.00,,,0.20,VWS V14.01,2013-08-12 11:20:00,
2013-08-12 07:25:00,65.8,64.4,30.01,West,264,0.0,0.0,95,0.00,,,0.20,VWS V14.01,2013-08-12 11:25:00,
2013-08-12 07:30:00,65.8,64.4,30.01,West,264,0.0,0.0,95,0.00,,,0.20,VWS V14.01,2013-08-12 11:30:00,
2013-08-12 07:35:00,65.7,64.2,30.01,West,264,0.0,0.0,95,0.00,,,0.20,VWS V14.01,2013-08-12 11:35:00,
2013-08-12 07:40:00,65.7,64.2,30.01,West,264,0.0,0.0,95,0.00,,,0.20,VWS V14.01,2013-08-12 11:40:00,
2013-08-12 07:45:00,65.7,64.2,30.01,West,264,0.0,0.0,95,0.00,,,0.20,VWS V14.01,2013-08-12 11:45:00,
2013-08-12 07:50:00,65.5,64.0,30.01,West,264,0.0,0.0,95,0.00,,,0.20,VWS V14.01,2013-08-12 11:50:00,
2013-08-12 07:55:00,65.5,64.0,30.01,West,264,0.0,0.0,95,0.00,,,0.20,VWS V14.01,2013-08-12 11:55:00,
2013-08-12 08:00:00,65.1,63.7,30.01,West,264,0.0,0.0,95,0.00,,,0.20,VWS V14.01,2013-08-12 12:00:00,
2013-08-12 08:05:00,65.1,63.7,30.01,West,264,0.0,0.0,95,0.00,,,0.20,VWS V14.01,2013-08-12 12:05:00,
2013-08-12 08:10:00,64.9,63.5,30.01,West,264,0.0,0.0,95,0.00,,,0.20,VWS V14.01,2013-08-12 12:10:00,
2013-08-12 08:15:00,64.9,63.5,30.01,West,264,0.0,0.0,95,0.00,,,0.20,VWS V14.01,2013-08-12 12:15:00,
2013-08-12 08:20:00,65.1,63.7,30.01,West,264,0.0,0.0,95,0.00,,,0.20,VWS V14.01,2013-08-12 12:20:00,
2013-08-12 08:25:00,65.1,63.7,30.04,West,264,0.0,0.0,95,0.00,,,0.20,VWS V14.01,2013-08-12 12:25:00,
2013-08-12 08:26:00,65.3,63.8,30.04,West,264,0.0,0.0,95,0.00,,,0.20,VWS V14.01,2013-08-12 12:26:00,
2013-08-12 08:30:00,65.3,63.8,30.04,West,264,0.0,0.0,95,0.00,,,0.20,VWS V14.01,2013-08-12 12:30:00,
2013-08-12 08:31:00,65.3,63.8,30.04,West,264,0.0,0.0,95,0.00,,,0.20,VWS V14.01,2013-08-12 12:31:00,
2013-08-12 08:35:00,65.5,64.0,30.04,West,264,0.0,0.0,95,0.00,,,0.20,VWS V14.01,2013-08-12 12:35:00,
2013-08-12 08:36:00,65.5,64.0,30.04,West,264,0.0,0.0,95,0.00,,,0.20,VWS V14.01,2013-08-12 12:36:00,
2013-08-12 08:40:00,65.7,64.2,30.04,West,264,0.0,0.0,95,0.00,,,0.20,VWS V14.01,2013-08-12 12:40:00,
2013-08-12 08:41:00,65.7,64.2,30.04,West,264,0.0,0.0,95,0.00,,,0.20,VWS V14.01,2013-08-12 12:41:00,
2013-08-12 08:45:00,65.7,64.2,30.04,West,264,0.0,0.0,95,0.00,,,0.20,VWS V14.01,2013-08-12 12:45:00,
2013-08-12 08:46:00,65.7,64.2,30.04,West,264,0.0,0.0,95,0.00,,,0.20,VWS V14.01,2013-08-12 12:46:00,
2013-08-12 08:50:00,65.8,64.4,30.04,West,264,0.0,0.0,95,0.00,,,0.20,VWS V14.01,2013-08-12 12:50:00,
2013-08-12 08:51:00,65.7,64.2,30.04,West,264,0.0,0.0,95,0.00,,,0.20,VWS V14.01,2013-08-12 12:51:00,
2013-08-12 08:55:00,65.8,64.4,30.04,West,264,0.0,0.0,95,0.00,,,0.20,VWS V14.01,2013-08-12 12:55:00,
2013-08-12 08:56:00,65.8,64.4,30.04,West,264,0.0,0.0,95,0.00,,,0.20,VWS V14.01,2013-08-12 12:56:00,
2013-08-12 09:00:00,65.8,64.4,30.04,West,264,0.0,0.0,95,0.00,,,0.20,VWS V14.01,2013-08-12 13:00:00,
2013-08-12 09:01:00,65.7,64.2,30.04,West,264,0.0,0.0,95,0.00,,,0.20,VWS V14.01,2013-08-12 13:01:00,
2013-08-12 09:05:00,65.7,64.2,30.04,West,264,0.0,0.0,95,0.00,,,0.20,VWS V14.01,2013-08-12 13:05:00,
2013-08-12 09:06:00,65.7,64.2,30.04,West,264,0.0,0.0,95,0.00,,,0.20,VWS V14.01,2013-08-12 13:06:00,
2013-08-12 09:10:00,65.5,64.0,30.04,West,264,0.0,0.0,95,0.00,,,0.20,VWS V14.01,2013-08-12 13:10:00,
2013-08-12 09:11:00,65.5,64.0,30.04,West,264,0.0,0.0,95,0.00,,,0.20,VWS V14.01,2013-08-12 13:11:00,
2013-08-12 09:15:00,65.7,64.2,30.04,West,264,0.0,0.0,95,0.00,,,0.20,VWS V14.01,2013-08-12 13:15:00,
2013-08-12 09:16:00,65.7,64.2,30.04,West,264,0.0,0.0,95,0.00,,,0.20,VWS V14.01,2013-08-12 13:16:00,
2013-08-12 09:20:00,65.7,64.2,30.04,West,264,0.0,0.0,95,0.00,,,0.20,VWS V14.01,2013-08-12 13:20:00,
2013-08-12 09:21:00,65.8,64.4,30.04,West,264,0.0,0.0,95,0.00,,,0.20,VWS V14.01,2013-08-12 13:21:00,
2013-08-12 09:25:00,65.8,64.4,30.04,West,264,0.0,0.0,95,0.00,,,0.20,VWS V14.01,2013-08-12 13:25:00,
2013-08-12 09:26:00,65.8,64.4,30.04,West,264,0.0,0.0,95,0.00,,,0.20,VWS V14.01,2013-08-12 13:26:00,
2013-08-12 09:30:00,66.0,64.6,30.04,West,264,0.0,0.0,95,0.00,,,0.20,VWS V14.01,2013-08-12 13:30:00,
2013-08-12 09:31:00,66.0,64.6,30.04,West,264,0.0,0.0,95,0.00,,,0.20,VWS V14.01,2013-08-12 13:31:00,
2013-08-12 09:35:00,66.0,64.6,30.04,West,264,0.0,0.0,95,0.00,,,0.20,VWS V14.01,2013-08-12 13:35:00,
2013-08-12 09:36:00,66.2,64.7,30.04,West,264,0.0,0.0,95,0.00,,,0.20,VWS V14.01,2013-08-12 13:36:00,
2013-08-12 09:40:00,66.0,64.6,30.04,West,264,0.0,0.0,95,0.00,,,0.20,VWS V14.01,2013-08-12 13:40:00,
2013-08-12 09:41:00,66.0,64.6,30.04,West,264,0.0,0.0,95,0.00,,,0.20,VWS V14.01,2013-08-12 13:41:00,
2013-08-12 09:45:00,66.2,64.7,30.04,West,264,0.0,0.0,95,0.00,,,0.20,VWS V14.01,2013-08-12 13:45:00,
2013-08-12 09:46:00,66.2,64.7,30.04,West,264,0.0,0.0,95,0.00,,,0.20,VWS V14.01,2013-08-12 13:46:00,
2013-08-12 09:50:00,66.4,64.9,30.04,West,264,0.0,0.0,95,0.00,,,0.20,VWS V14.01,2013-08-12 13:50:00,
2013-08-12 09:51:00,66.4,64.9,30.04,West,264,0.0,0.0,95,0.00,,,0.20,VWS V14.01,2013-08-12 13:51:00,
2013-08-12 09:55:00,66.6,65.1,30.04,West,264,0.0,0.0,95,0.00,,,0.20,VWS V14.01,2013-08-12 13:55:00,
2013-08-12 09:56:00,66.7,65.3,30.04,West,264,0.0,0.0,95,0.00,,,0.20,VWS V14.01,2013-08-12 13:56:00,
2013-08-12 10:00:00,66.9,65.4,30.04,West,264,0.0,0.0,95,0.00,,,0.20,VWS V14.01,2013-08-12 14:00:00,
2013-08-12 10:01:00,67.1,65.6,30.04,West,264,0.0,0.0,95,0.00,,,0.20,VWS V14.01,2013-08-12 14:01:00,
2013-08-12 10:05:00,66.9,65.4,30.04,West,264,0.0,0.0,95,0.00,,,0.20,VWS V14.01,2013-08-12 14:05:00,
2013-08-12 10:06:00,66.9,65.4,30.04,West,264,0.0,0.0,95,0.00,,,0.20,VWS V14.01,2013-08-12 14:06:00,
2013-08-12 10:10:00,67.1,65.6,30.01,West,264,0.0,0.0,95,0.00,,,0.20,VWS V14.01,2013-08-12 14:10:00,
2013-08-12 10:11:00,67.1,65.6,30.01,West,264,0.0,0.0,95,0.00,,,0.20,VWS V14.01,2013-08-12 14:11:00,
2013-08-12 10:15:00,67.5,66.0,30.01,West,264,0.0,0.0,95,0.00,,,0.20,VWS V14.01,2013-08-12 14:15:00,
2013-08-12 10:16:00,67.3,65.8,30.01,West,264,0.0,0.0,95,0.00,,,0.20,VWS V14.01,2013-08-12 14:16:00,
2013-08-12 10:20:00,67.3,65.8,30.01,West,264,0.0,0.0,95,0.00,,,0.20,VWS V14.01,2013-08-12 14:20:00,
2013-08-12 10:21:00,67.3,65.8,30.01,West,264,0.0,0.0,95,0.00,,,0.20,VWS V14.01,2013-08-12 14:21:00,
2013-08-12 10:25:00,67.3,65.5,30.01,West,264,0.0,0.0,94,0.00,,,0.20,VWS V14.01,2013-08-12 14:25:00,
2013-08-12 10:26:00,67.3,65.5,30.01,West,264,0.0,0.0,94,0.00,,,0.20,VWS V14.01,2013-08-12 14:26:00,
2013-08-12 10:30:00,67.5,65.7,30.01,West,264,0.0,0.0,94,0.00,,,0.20,VWS V14.01,2013-08-12 14:30:00,
2013-08-12 10:31:00,67.5,65.7,30.01,West,264,0.0,0.0,94,0.00,,,0.20,VWS V14.01,2013-08-12 14:31:00,
2013-08-12 10:35:00,67.6,65.9,30.01,West,264,0.0,0.0,94,0.00,,,0.20,VWS V14.01,2013-08-12 14:35:00,
2013-08-12 10:36:00,67.6,65.9,30.01,West,264,0.0,0.0,94,0.00,,,0.20,VWS V14.01,2013-08-12 14:36:00,
2013-08-12 10:40:00,67.6,65.9,30.04,West,264,0.0,0.0,94,0.00,,,0.20,VWS V14.01,2013-08-12 14:40:00,
2013-08-12 10:41:00,67.5,65.7,30.04,West,264,0.0,0.0,94,0.00,,,0.20,VWS V14.01,2013-08-12 14:41:00,
2013-08-12 10:45:00,67.6,65.9,30.04,West,264,0.0,0.0,94,0.00,,,0.20,VWS V14.01,2013-08-12 14:45:00,
2013-08-12 10:46:00,67.6,65.6,30.04,West,264,0.0,0.0,93,0.00,,,0.20,VWS V14.01,2013-08-12 14:46:00,
2013-08-12 10:50:00,67.6,65.6,30.04,West,264,0.0,0.0,93,0.00,,,0.20,VWS V14.01,2013-08-12 14:50:00,
2013-08-12 10:51:00,67.8,65.7,30.04,West,263,0.0,0.0,93,0.00,,,0.20,VWS V14.01,2013-08-12 14:51:00,
2013-08-12 10:55:00,67.8,65.7,30.04,West,264,0.0,0.0,93,0.00,,,0.20,VWS V14.01,2013-08-12 14:55:00,
2013-08-12 10:56:00,67.8,65.7,30.04,West,264,0.0,0.0,93,0.00,,,0.20,VWS V14.01,2013-08-12 14:56:00,
2013-08-12 11:00:00,68.0,65.6,30.04,West,264,0.0,0.0,92,0.00,,,0.20,VWS V14.01,2013-08-12 15:00:00,
2013-08-12 11:01:00,68.0,65.6,30.04,West,264,0.0,0.0,92,0.00,,,0.20,VWS V14.01,2013-08-12 15:01:00,
2013-08-12 11:05:00,68.0,65.6,30.04,West,264,0.0,0.0,92,0.00,,,0.20,VWS V14.01,2013-08-12 15:05:00,
2013-08-12 11:06:00,68.2,65.8,30.04,West,264,0.0,0.0,92,0.00,,,0.20,VWS V14.01,2013-08-12 15:06:00,
2013-08-12 11:10:00,68.4,65.9,30.01,West,264,0.0,0.0,92,0.00,,,0.20,VWS V14.01,2013-08-12 15:10:00,
2013-08-12 11:11:00,68.4,65.9,30.01,West,264,0.0,0.0,92,0.00,,,0.20,VWS V14.01,2013-08-12 15:11:00,
2013-08-12 11:15:00,68.5,66.1,30.01,West,264,0.0,0.0,92,0.00,,,0.20,VWS V14.01,2013-08-12 15:15:00,
2013-08-12 11:16:00,68.7,66.3,30.01,West,264,0.0,0.0,92,0.00,,,0.20,VWS V14.01,2013-08-12 15:16:00,
2013-08-12 11:20:00,69.1,66.7,30.01,West,264,0.0,0.0,92,0.00,,,0.20,VWS V14.01,2013-08-12 15:20:00,
2013-08-12 11:21:00,69.1,66.7,30.01,West,264,0.0,0.0,92,0.00,,,0.20,VWS V14.01,2013-08-12 15:21:00,
2013-08-12 11:25:00,69.1,66.7,30.01,West,264,0.0,0.0,92,0.00,,,0.20,VWS V14.01,2013-08-12 15:25:00,
2013-08-12 11:26:00,69.3,66.8,30.01,West,264,0.0,0.0,92,0.00,,,0.20,VWS V14.01,2013-08-12 15:26:00,
2013-08-12 11:30:00,69.3,66.5,30.01,West,264,0.0,0.0,91,0.00,,,0.20,VWS V14.01,2013-08-12 15:30:00,
2013-08-12 11:31:00,69.3,66.5,30.01,West,264,0.0,0.0,91,0.00,,,0.20,VWS V14.01,2013-08-12 15:31:00,
2013-08-12 11:35:00,69.6,66.9,30.01,West,264,0.0,0.0,91,0.00,,,0.20,VWS V14.01,2013-08-12 15:35:00,
2013-08-12 11:36:00,69.6,66.9,30.01,West,264,0.0,0.0,91,0.00,,,0.20,VWS V14.01,2013-08-12 15:36:00,
2013-08-12 11:40:00,70.0,66.9,30.01,West,264,0.0,0.0,90,0.00,,,0.20,VWS V14.01,2013-08-12 15:40:00,
2013-08-12 11:41:00,70.0,66.9,30.01,West,264,0.0,0.0,90,0.00,,,0.20,VWS V14.01,2013-08-12 15:41:00,
2013-08-12 11:45:00,69.8,66.7,30.01,West,264,0.0,0.0,90,0.00,,,0.20,VWS V14.01,2013-08-12 15:45:00,
2013-08-12 11:46:00,69.8,66.7,30.01,West,264,0.0,0.0,90,0.00,,,0.20,VWS V14.01,2013-08-12 15:46:00,
2013-08-12 11:50:00,69.8,66.4,30.01,West,264,0.0,0.0,89,0.00,,,0.20,VWS V14.01,2013-08-12 15:50:00,
2013-08-12 11:51:00,69.8,66.4,30.01,West,264,0.0,0.0,89,0.00,,,0.20,VWS V14.01,2013-08-12 15:51:00,
2013-08-12 11:55:00,69.8,66.4,30.01,West,264,0.0,0.0,89,0.00,,,0.20,VWS V14.01,2013-08-12 15:55:00,
2013-08-12 11:56:00,69.8,66.4,30.01,West,264,0.0,0.0,89,0.00,,,0.20,VWS V14.01,2013-08-12 15:56:00,
2013-08-12 12:00:00,70.2,66.4,30.01,West,264,0.0,0.0,88,0.00,,,0.20,VWS V14.01,2013-08-12 16:00:00,
2013-08-12 12:01:00,70.3,66.6,30.01,West,264,0.0,0.0,88,0.00,,,0.20,VWS V14.01,2013-08-12 16:01:00,
2013-08-12 12:05:00,70.9,67.2,30.01,South,182,0.0,0.0,88,0.00,,,0.20,VWS V14.01,2013-08-12 16:05:00,
2013-08-12 12:06:00,71.1,67.3,30.01,South,182,0.0,0.0,88,0.00,,,0.20,VWS V14.01,2013-08-12 16:06:00,
2013-08-12 12:10:00,71.2,67.5,30.01,South,182,0.0,0.0,88,0.00,,,0.20,VWS V14.01,2013-08-12 16:10:00,
2013-08-12 12:11:00,70.9,66.8,30.01,South,182,0.0,0.0,87,0.00,,,0.20,VWS V14.01,2013-08-12 16:11:00,
2013-08-12 12:15:00,70.9,66.8,30.01,South,182,0.0,0.0,87,0.00,,,0.20,VWS V14.01,2013-08-12 16:15:00,
2013-08-12 12:16:00,70.9,66.5,30.01,South,182,0.0,0.0,86,0.00,,,0.20,VWS V14.01,2013-08-12 16:16:00,
2013-08-12 12:20:00,71.1,66.7,30.01,South,182,0.0,0.0,86,0.00,,,0.20,VWS V14.01,2013-08-12 16:20:00,
2013-08-12 12:21:00,71.2,66.5,30.01,South,182,0.0,0.0,85,0.00,,,0.20,VWS V14.01,2013-08-12 16:21:00,
2013-08-12 12:25:00,71.6,66.5,30.01,South,182,0.0,0.0,84,0.00,,,0.20,VWS V14.01,2013-08-12 16:25:00,
2013-08-12 12:26:00,71.6,66.2,30.01,South,182,0.0,0.0,83,0.00,,,0.20,VWS V14.01,2013-08-12 16:26:00,
2013-08-12 12:30:00,71.8,66.0,30.01,South,182,0.0,0.0,82,0.00,,,0.20,VWS V14.01,2013-08-12 16:30:00,
2013-08-12 12:31:00,71.8,66.0,30.01,South,182,0.0,0.0,82,0.00,,,0.20,VWS V14.01,2013-08-12 16:31:00,
2013-08-12 12:35:00,71.8,65.3,30.01,South,182,0.0,0.0,80,0.00,,,0.20,VWS V14.01,2013-08-12 16:35:00,
2013-08-12 12:36:00,72.0,65.5,30.01,South,176,0.0,0.0,80,0.00,,,0.20,VWS V14.01,2013-08-12 16:36:00,
2013-08-12 12:40:00,72.1,65.3,30.01,South,176,0.0,0.0,79,0.00,,,0.20,VWS V14.01,2013-08-12 16:40:00,
2013-08-12 12:41:00,72.1,64.9,30.01,South,176,0.0,0.0,78,0.00,,,0.20,VWS V14.01,2013-08-12 16:41:00,
2013-08-12 12:45:00,72.3,64.7,30.01,South,176,0.0,0.0,77,0.00,,,0.20,VWS V14.01,2013-08-12 16:45:00,
2013-08-12 12:46:00,72.5,64.5,30.01,South,176,0.0,0.0,76,0.00,,,0.20,VWS V14.01,2013-08-12 16:46:00,
2013-08-12 12:50:00,72.3,63.2,30.01,South,176,0.0,0.0,73,0.00,,,0.20,VWS V14.01,2013-08-12 16:50:00,
2013-08-12 12:51:00,72.5,63.4,30.01,South,177,0.0,0.0,73,0.00,,,0.20,VWS V14.01,2013-08-12 16:51:00,
2013-08-12 12:55:00,72.3,62.0,30.01,South,177,0.0,0.0,70,0.00,,,0.20,VWS V14.01,2013-08-12 16:55:00,
2013-08-12 12:56:00,72.3,61.6,30.01,South,177,0.0,0.0,69,0.00,,,0.20,VWS V14.01,2013-08-12 16:56:00,
2013-08-12 13:00:00,72.5,60.9,30.01,South,177,0.0,0.0,67,0.00,,,0.20,VWS V14.01,2013-08-12 17:00:00,
2013-08-12 13:01:00,72.5,60.9,30.01,South,177,0.0,0.0,67,0.00,,,0.20,VWS V14.01,2013-08-12 17:01:00,
2013-08-12 13:05:00,72.9,60.4,30.01,South,177,0.0,0.0,65,0.00,,,0.20,VWS V14.01,2013-08-12 17:05:00,
2013-08-12 13:06:00,73.0,60.2,30.01,South,177,0.0,0.0,64,0.00,,,0.20,VWS V14.01,2013-08-12 17:06:00,
2013-08-12 13:10:00,73.2,60.3,30.01,South,177,0.0,0.0,64,0.00,,,0.20,VWS V14.01,2013-08-12 17:10:00,
2013-08-12 13:11:00,73.2,59.9,30.01,South,177,0.0,0.0,63,0.00,,,0.20,VWS V14.01,2013-08-12 17:11:00,
2013-08-12 13:15:00,73.2,59.4,30.01,South,177,0.0,0.0,62,0.00,,,0.20,VWS V14.01,2013-08-12 17:15:00,
2013-08-12 13:16:00,73.2,59.0,30.01,South,177,0.0,0.0,61,0.00,,,0.20,VWS V14.01,2013-08-12 17:16:00,
2013-08-12 13:20:00,73.4,58.7,30.01,South,177,0.0,0.0,60,0.00,,,0.20,VWS V14.01,2013-08-12 17:20:00,
2013-08-12 13:21:00,73.4,58.7,30.01,South,177,0.0,0.0,60,0.00,,,0.20,VWS V14.01,2013-08-12 17:21:00,
2013-08-12 13:25:00,73.6,58.4,30.01,South,177,0.0,0.0,59,0.00,,,0.20,VWS V14.01,2013-08-12 17:25:00,
2013-08-12 13:26:00,73.8,58.5,30.01,South,177,0.0,0.0,59,0.00,,,0.20,VWS V14.01,2013-08-12 17:26:00,
2013-08-12 13:30:00,73.8,58.5,30.01,South,177,0.0,0.0,59,0.00,,,0.20,VWS V14.01,2013-08-12 17:30:00,
2013-08-12 13:31:00,73.8,58.5,30.01,South,177,0.0,0.0,59,0.00,,,0.20,VWS V14.01,2013-08-12 17:31:00,
2013-08-12 13:35:00,73.9,58.2,30.01,South,177,0.0,0.0,58,0.00,,,0.20,VWS V14.01,2013-08-12 17:35:00,
2013-08-12 13:36:00,73.8,58.1,30.01,South,177,0.0,0.0,58,0.00,,,0.20,VWS V14.01,2013-08-12 17:36:00,
2013-08-12 13:40:00,73.9,57.8,30.01,South,177,0.0,0.0,57,0.00,,,0.20,VWS V14.01,2013-08-12 17:40:00,
2013-08-12 13:41:00,73.9,57.8,30.01,South,177,0.0,0.0,57,0.00,,,0.20,VWS V14.01,2013-08-12 17:41:00,
2013-08-12 13:45:00,74.1,57.4,30.01,South,177,0.0,0.0,56,0.00,,,0.20,VWS V14.01,2013-08-12 17:45:00,
2013-08-12 13:46:00,74.1,57.4,30.01,South,177,0.0,0.0,56,0.00,,,0.20,VWS V14.01,2013-08-12 17:46:00,
2013-08-12 13:50:00,74.3,57.6,30.01,South,177,0.0,0.0,56,0.00,,,0.20,VWS V14.01,2013-08-12 17:50:00,
2013-08-12 13:51:00,74.1,56.9,30.01,South,177,0.0,0.0,55,0.00,,,0.20,VWS V14.01,2013-08-12 17:51:00,
2013-08-12 13:55:00,74.3,56.6,30.01,South,177,0.0,0.0,54,0.00,,,0.20,VWS V14.01,2013-08-12 17:55:00,
2013-08-12 13:56:00,74.3,55.6,30.01,South,177,0.0,0.0,52,0.00,,,0.20,VWS V14.01,2013-08-12 17:56:00,
2013-08-12 14:00:00,74.5,55.7,30.01,South,177,0.0,0.0,52,0.00,,,0.20,VWS V14.01,2013-08-12 18:00:00,
2013-08-12 14:01:00,74.7,55.9,30.01,South,177,0.0,0.0,52,0.00,,,0.20,VWS V14.01,2013-08-12 18:01:00,
2013-08-12 14:05:00,74.7,56.4,30.01,South,177,0.0,0.0,53,0.00,,,0.20,VWS V14.01,2013-08-12 18:05:00,
2013-08-12 14:06:00,74.7,56.4,30.01,South,177,0.0,0.0,53,0.00,,,0.20,VWS V14.01,2013-08-12 18:06:00,
2013-08-12 14:10:00,74.8,56.0,30.01,South,177,0.0,0.0,52,0.00,,,0.20,VWS V14.01,2013-08-12 18:10:00,
2013-08-12 14:11:00,74.7,55.9,30.01,South,177,0.0,0.0,52,0.00,,,0.20,VWS V14.01,2013-08-12 18:11:00,
2013-08-12 14:15:00,74.7,55.9,30.01,South,177,0.0,0.0,52,0.00,,,0.20,VWS V14.01,2013-08-12 18:15:00,
2013-08-12 14:17:00,74.8,56.6,30.01,South,177,0.0,0.0,53,0.00,,,0.20,VWS V14.01,2013-08-12 18:17:00,
2013-08-12 14:20:00,74.8,56.6,30.01,South,177,0.0,0.0,53,0.00,,,0.20,VWS V14.01,2013-08-12 18:20:00,
2013-08-12 14:22:00,74.8,56.6,30.01,South,177,0.0,0.0,53,0.00,,,0.20,VWS V14.01,2013-08-12 18:22:00,
2013-08-12 14:25:00,75.0,57.3,30.01,South,177,0.0,0.0,54,0.00,,,0.20,VWS V14.01,2013-08-12 18:25:00,
2013-08-12 14:26:00,75.4,57.6,30.01,South,177,0.0,0.0,54,0.00,,,0.20,VWS V14.01,2013-08-12 18:26:00,
2013-08-12 14:30:00,75.6,57.8,30.01,South,177,0.0,0.0,54,0.00,,,0.20,VWS V14.01,2013-08-12 18:30:00,
2013-08-12 14:32:00,75.6,57.8,30.01,South,177,0.0,0.0,54,0.00,,,0.20,VWS V14.01,2013-08-12 18:32:00,
2013-08-12 14:35:00,75.6,57.8,30.01,South,177,0.0,0.0,54,0.00,,,0.20,VWS V14.01,2013-08-12 18:35:00,
2013-08-12 14:37:00,75.7,57.9,30.01,South,177,0.0,0.0,54,0.00,,,0.20,VWS V14.01,2013-08-12 18:37:00,
2013-08-12 14:40:00,75.7,57.9,30.01,South,177,0.0,0.0,54,0.00,,,0.20,VWS V14.01,2013-08-12 18:40:00,
2013-08-12 14:42:00,75.9,58.1,30.01,South,177,0.0,0.0,54,0.00,,,0.20,VWS V14.01,2013-08-12 18:42:00,
2013-08-12 14:45:00,75.9,58.6,30.01,South,177,0.0,0.0,55,0.00,,,0.20,VWS V14.01,2013-08-12 18:45:00,
2013-08-12 14:47:00,76.3,59.5,30.01,South,177,0.0,0.0,56,0.00,,,0.20,VWS V14.01,2013-08-12 18:47:00,
2013-08-12 14:50:00,76.8,60.5,30.01,WSW,252,0.0,5.4,57,0.00,,,0.20,VWS V14.01,2013-08-12 18:50:00,
2013-08-12 14:52:00,76.8,60.0,30.01,WSW,252,2.2,3.6,56,0.00,,,0.20,VWS V14.01,2013-08-12 18:52:00,
2013-08-12 14:55:00,77.4,60.5,29.98,WSW,252,0.0,3.6,56,0.00,,,0.20,VWS V14.01,2013-08-12 18:55:00,
2013-08-12 14:57:00,77.5,60.6,29.98,WSW,252,0.0,0.0,56,0.00,,,0.20,VWS V14.01,2013-08-12 18:57:00,
2013-08-12 15:00:00,77.7,61.3,29.98,WSW,252,0.0,0.0,57,0.00,,,0.20,VWS V14.01,2013-08-12 19:00:00,
2013-08-12 15:02:00,77.0,60.1,29.98,WSW,252,0.0,0.0,56,0.00,,,0.20,VWS V14.01,2013-08-12 19:02:00,
2013-08-12 15:05:00,76.6,59.3,29.98,WSW,252,0.0,0.0,55,0.00,,,0.20,VWS V14.01,2013-08-12 19:05:00,
2013-08-12 15:07:00,76.8,60.0,29.98,WSW,252,0.0,0.0,56,0.00,,,0.20,VWS V14.01,2013-08-12 19:07:00,
2013-08-12 15:10:00,77.4,61.0,29.98,WSW,252,0.0,0.0,57,0.00,,,0.20,VWS V14.01,2013-08-12 19:10:00,
2013-08-12 15:12:00,77.5,61.1,29.98,WSW,252,0.0,0.0,57,0.00,,,0.20,VWS V14.01,2013-08-12 19:12:00,
2013-08-12 15:15:00,77.4,60.5,29.98,WSW,252,0.0,0.0,56,0.00,,,0.20,VWS V14.01,2013-08-12 19:15:00,
2013-08-12 15:17:00,77.5,60.6,29.98,WSW,252,0.0,2.7,56,0.00,,,0.20,VWS V14.01,2013-08-12 19:17:00,
2013-08-12 15:20:00,77.5,60.6,29.98,West,261,2.2,2.7,56,0.00,,,0.20,VWS V14.01,2013-08-12 19:20:00,
2013-08-12 15:22:00,77.9,61.0,29.98,South,178,3.6,3.6,56,0.00,,,0.20,VWS V14.01,2013-08-12 19:22:00,
2013-08-12 15:25:00,78.1,60.6,29.98,South,174,4.0,4.0,55,0.00,,,0.20,VWS V14.01,2013-08-12 19:25:00,
2013-08-12 15:27:00,78.1,60.1,29.98,South,173,3.1,4.0,54,0.00,,,0.20,VWS V14.01,2013-08-12 19:27:00,
2013-08-12 15:30:00,78.3,60.3,29.98,South,173,0.0,4.0,54,0.00,,,0.20,VWS V14.01,2013-08-12 19:30:00,
2013-08-12 15:32:00,78.4,59.9,29.98,West,264,3.1,3.1,53,0.00,,,0.20,VWS V14.01,2013-08-12 19:32:00,
2013-08-12 15:35:00,78.6,59.5,29.98,West,261,0.0,4.9,52,0.00,,,0.20,VWS V14.01,2013-08-12 19:35:00,
2013-08-12 15:37:00,78.8,58.6,29.98,West,276,5.4,5.8,50,0.00,,,0.20,VWS V14.01,2013-08-12 19:37:00,
2013-08-12 15:40:00,78.8,58.0,29.98,WSW,255,0.0,5.8,49,0.00,,,0.20,VWS V14.01,2013-08-12 19:40:00,
2013-08-12 15:42:00,79.0,58.2,29.98,WSW,255,0.0,3.6,49,0.00,,,0.20,VWS V14.01,2013-08-12 19:42:00,
2013-08-12 15:45:00,78.8,58.0,29.98,SSW,213,0.0,3.6,49,0.00,,,0.20,VWS V14.01,2013-08-12 19:45:00,
2013-08-12 15:47:00,78.8,58.0,29.98,SSW,213,0.0,0.0,49,0.00,,,0.20,VWS V14.01,2013-08-12 19:47:00,
2013-08-12 15:50:00,78.8,58.0,29.98,SSW,213,0.0,0.0,49,0.00,,,0.20,VWS V14.01,2013-08-12 19:50:00,
2013-08-12 15:52:00,78.8,58.6,29.98,WSW,252,5.4,5.4,50,0.00,,,0.20,VWS V14.01,2013-08-12 19:52:00,
2013-08-12 15:55:00,78.6,57.9,29.98,WSW,257,0.0,5.4,49,0.00,,,0.20,VWS V14.01,2013-08-12 19:55:00,
2013-08-12 15:57:00,78.4,57.1,29.98,WSW,257,0.0,0.0,48,0.00,,,0.20,VWS V14.01,2013-08-12 19:57:00,
2013-08-12 16:00:00,78.4,57.1,29.98,WSW,257,0.0,3.1,48,0.00,,,0.20,VWS V14.01,2013-08-12 20:00:00,
2013-08-12 16:02:00,78.4,57.7,29.98,WSW,257,0.0,0.0,49,0.00,,,0.20,VWS V14.01,2013-08-12 20:02:00,
2013-08-12 16:05:00,78.6,57.9,29.98,WSW,257,0.0,0.0,49,0.00,,,0.20,VWS V14.01,2013-08-12 20:05:00,
2013-08-12 16:07:00,78.3,58.1,29.98,West,264,4.9,5.8,50,0.00,,,0.20,VWS V14.01,2013-08-12 20:07:00,
2013-08-12 16:10:00,78.1,58.0,29.98,West,264,2.7,5.8,50,0.00,,,0.20,VWS V14.01,2013-08-12 20:10:00,
2013-08-12 16:13:00,77.5,57.5,29.98,West,264,3.1,4.0,50,0.00,,,0.20,VWS V14.01,2013-08-12 20:13:00,
2013-08-12 16:15:00,77.4,57.3,29.98,West,264,0.0,4.0,50,0.00,,,0.20,VWS V14.01,2013-08-12 20:15:00,
2013-08-12 16:18:00,77.0,57.0,29.98,West,264,0.0,0.0,50,0.00,,,0.20,VWS V14.01,2013-08-12 20:18:00,
2013-08-12 16:20:00,76.8,57.3,29.98,West,264,0.0,0.0,51,0.00,,,0.20,VWS V14.01,2013-08-12 20:20:00,
2013-08-12 16:23:00,76.6,57.7,29.98,West,264,0.0,0.0,52,0.00,,,0.20,VWS V14.01,2013-08-12 20:23:00,
2013-08-12 16:25:00,76.8,57.9,29.98,West,264,0.0,0.0,52,0.00,,,0.20,VWS V14.01,2013-08-12 20:25:00,
2013-08-12 16:28:00,76.8,58.9,29.98,West,264,0.0,0.0,54,0.00,,,0.20,VWS V14.01,2013-08-12 20:28:00,
2013-08-12 16:30:00,76.8,58.9,29.98,West,264,0.0,0.0,54,0.00,,,0.20,VWS V14.01,2013-08-12 20:30:00,
2013-08-12 16:33:00,76.8,60.0,29.98,West,264,0.0,0.0,56,0.00,,,0.20,VWS V14.01,2013-08-12 20:33:00,
2013-08-12 16:35:00,76.6,59.8,29.98,West,264,0.0,0.0,56,0.00,,,0.20,VWS V14.01,2013-08-12 20:35:00,
2013-08-12 16:38:00,76.6,60.3,29.98,West,264,0.0,0.0,57,0.00,,,0.20,VWS V14.01,2013-08-12 20:38:00,
2013-08-12 16:40:00,76.6,60.3,29.98,West,264,0.0,0.0,57,0.00,,,0.20,VWS V14.01,2013-08-12 20:40:00,
2013-08-12 16:43:00,77.0,60.6,29.98,West,264,0.0,0.0,57,0.00,,,0.20,VWS V14.01,2013-08-12 20:43:00,
2013-08-12 16:45:00,77.0,60.6,29.98,West,264,0.0,0.0,57,0.00,,,0.20,VWS V14.01,2013-08-12 20:45:00,
2013-08-12 16:48:00,77.4,61.0,29.98,West,264,0.0,0.0,57,0.00,,,0.20,VWS V14.01,2013-08-12 20:48:00,
2013-08-12 16:50:00,77.5,61.1,29.98,West,264,0.0,0.0,57,0.00,,,0.20,VWS V14.01,2013-08-12 20:50:00,
2013-08-12 16:53:00,78.1,61.6,29.98,West,264,0.0,0.0,57,0.00,,,0.20,VWS V14.01,2013-08-12 20:53:00,
2013-08-12 16:55:00,78.1,61.6,29.98,West,264,0.0,0.0,57,0.00,,,0.20,VWS V14.01,2013-08-12 20:55:00,
2013-08-12 16:58:00,77.5,61.1,29.98,West,264,0.0,0.0,57,0.00,,,0.20,VWS V14.01,2013-08-12 20:58:00,
2013-08-12 17:00:00,77.2,60.3,29.98,West,264,2.2,2.2,56,0.00,,,0.20,VWS V14.01,2013-08-12 21:00:00,
2013-08-12 17:03:00,76.6,59.8,29.98,West,264,0.0,2.7,56,0.00,,,0.20,VWS V14.01,2013-08-12 21:03:00,
2013-08-12 17:05:00,76.6,59.8,29.98,West,264,0.0,2.7,56,0.00,,,0.20,VWS V14.01,2013-08-12 21:05:00,
2013-08-12 17:08:00,76.3,60.0,29.98,West,264,0.0,0.0,57,0.00,,,0.20,VWS V14.01,2013-08-12 21:08:00,
2013-08-12 17:10:00,76.3,59.5,29.95,West,264,0.0,0.0,56,0.00,,,0.20,VWS V14.01,2013-08-12 21:10:00,
2013-08-12 17:13:00,76.5,60.6,29.95,West,264,0.0,0.0,58,0.00,,,0.20,VWS V14.01,2013-08-12 21:13:00,
2013-08-12 17:15:00,76.8,60.9,29.95,West,264,0.0,0.0,58,0.00,,,0.20,VWS V14.01,2013-08-12 21:15:00,
2013-08-12 17:18:00,77.2,61.3,29.95,West,264,0.0,0.0,58,0.00,,,0.20,VWS V14.01,2013-08-12 21:18:00,
2013-08-12 17:20:00,77.2,61.3,29.95,West,264,0.0,0.0,58,0.00,,,0.20,VWS V14.01,2013-08-12 21:20:00,
2013-08-12 17:23:00,77.2,60.8,29.95,West,264,0.0,0.0,57,0.00,,,0.20,VWS V14.01,2013-08-12 21:23:00,
2013-08-12 17:25:00,77.2,60.8,29.95,West,264,0.0,0.0,57,0.00,,,0.20,VWS V14.01,2013-08-12 21:25:00,
2013-08-12 17:28:00,76.6,60.3,29.95,West,261,5.4,5.4,57,0.00,,,0.20,VWS V14.01,2013-08-12 21:28:00,
2013-08-12 17:30:00,76.6,60.3,29.95,WSW,258,0.0,5.4,57,0.00,,,0.20,VWS V14.01,2013-08-12 21:30:00,
2013-08-12 17:33:00,76.6,59.8,29.95,WSW,258,0.0,0.0,56,0.00,,,0.20,VWS V14.01,2013-08-12 21:33:00,
2013-08-12 17:35:00,76.5,59.6,29.95,WSW,258,0.0,0.0,56,0.00,,,0.20,VWS V14.01,2013-08-12 21:35:00,
2013-08-12 17:38:00,75.9,59.6,29.95,WSW,258,0.0,2.7,57,0.00,,,0.20,VWS V14.01,2013-08-12 21:38:00,
2013-08-12 17:40:00,75.7,59.4,29.95,WSW,258,0.0,2.7,57,0.00,,,0.20,VWS V14.01,2013-08-12 21:40:00,
2013-08-12 17:43:00,75.6,59.8,29.95,WSW,258,0.0,0.0,58,0.00,,,0.20,VWS V14.01,2013-08-12 21:43:00,
2013-08-12 17:45:00,75.4,59.6,29.95,WSW,258,0.0,0.0,58,0.00,,,0.20,VWS V14.01,2013-08-12 21:45:00,
2013-08-12 17:48:00,75.4,60.1,29.95,WSW,258,0.0,0.0,59,0.00,,,0.20,VWS V14.01,2013-08-12 21:48:00,
2013-08-12 17:50:00,75.2,59.9,29.95,WSW,258,0.0,0.0,59,0.00,,,0.20,VWS V14.01,2013-08-12 21:50:00,
2013-08-12 17:53:00,75.0,60.2,29.95,WSW,258,0.0,0.0,60,0.00,,,0.20,VWS V14.01,2013-08-12 21:53:00,
2013-08-12 17:55:00,74.8,60.0,29.95,WSW,258,0.0,3.1,60,0.00,,,0.20,VWS V14.01,2013-08-12 21:55:00,
2013-08-12 17:58:00,74.8,60.5,29.95,WSW,258,0.0,0.0,61,0.00,,,0.20,VWS V14.01,2013-08-12 21:58:00,
2013-08-12 18:00:00,74.7,60.3,29.95,WSW,258,0.0,0.0,61,0.00,,,0.20,VWS V14.01,2013-08-12 22:00:00,
2013-08-12 18:03:00,74.7,60.3,29.95,WSW,258,0.0,0.0,61,0.00,,,0.20,VWS V14.01,2013-08-12 22:03:00,
2013-08-12 18:05:00,74.7,60.3,29.95,WSW,258,0.0,0.0,61,0.00,,,0.20,VWS V14.01,2013-08-12 22:05:00,
2013-08-12 18:08:00,74.7,60.8,29.95,WSW,258,0.0,0.0,62,0.00,,,0.20,VWS V14.01,2013-08-12 22:08:00,
2013-08-12 18:10:00,74.7,60.8,29.95,WSW,258,0.0,0.0,62,0.00,,,0.20,VWS V14.01,2013-08-12 22:10:00,
2013-08-12 18:13:00,74.5,60.6,29.95,WSW,258,0.0,0.0,62,0.00,,,0.20,VWS V14.01,2013-08-12 22:13:00,
2013-08-12 18:15:00,74.3,60.9,29.95,WSW,258,0.0,0.0,63,0.00,,,0.20,VWS V14.01,2013-08-12 22:15:00,
2013-08-12 18:18:00,74.1,61.2,29.95,WSW,258,0.0,0.0,64,0.00,,,0.20,VWS V14.01,2013-08-12 22:18:00,
2013-08-12 18:20:00,74.1,61.2,29.95,WSW,258,0.0,0.0,64,0.00,,,0.20,VWS V14.01,2013-08-12 22:20:00,
2013-08-12 18:23:00,74.3,61.8,29.95,WSW,258,0.0,0.0,65,0.00,,,0.20,VWS V14.01,2013-08-12 22:23:00,
2013-08-12 18:25:00,74.3,61.8,29.95,WSW,258,0.0,0.0,65,0.00,,,0.20,VWS V14.01,2013-08-12 22:25:00,
2013-08-12 18:28:00,74.5,62.0,29.95,WSW,258,0.0,0.0,65,0.00,,,0.20,VWS V14.01,2013-08-12 22:28:00,
2013-08-12 18:30:00,74.7,62.1,29.95,WSW,258,0.0,0.0,65,0.00,,,0.20,VWS V14.01,2013-08-12 22:30:00,
2013-08-12 18:33:00,74.3,61.8,29.95,WSW,258,0.0,0.0,65,0.00,,,0.20,VWS V14.01,2013-08-12 22:33:00,
2013-08-12 18:35:00,74.1,61.6,29.95,WSW,258,0.0,0.0,65,0.00,,,0.20,VWS V14.01,2013-08-12 22:35:00,
2013-08-12 18:38:00,74.1,62.0,29.95,WSW,258,0.0,0.0,66,0.00,,,0.20,VWS V14.01,2013-08-12 22:38:00,
2013-08-12 18:40:00,74.1,62.0,29.95,WSW,258,0.0,0.0,66,0.00,,,0.20,VWS V14.01,2013-08-12 22:40:00,
2013-08-12 18:43:00,74.1,62.0,29.95,WSW,258,0.0,0.0,66,0.00,,,0.20,VWS V14.01,2013-08-12 22:43:00,
2013-08-12 18:45:00,74.1,62.5,29.95,WSW,258,0.0,0.0,67,0.00,,,0.20,VWS V14.01,2013-08-12 22:45:00,
2013-08-12 18:48:00,73.9,62.3,29.95,WSW,258,0.0,0.0,67,0.00,,,0.20,VWS V14.01,2013-08-12 22:48:00,
2013-08-12 18:50:00,73.9,62.3,29.95,WSW,258,0.0,0.0,67,0.00,,,0.20,VWS V14.01,2013-08-12 22:50:00,
2013-08-12 18:53:00,73.8,62.1,29.95,WSW,258,0.0,0.0,67,0.00,,,0.20,VWS V14.01,2013-08-12 22:53:00,
2013-08-12 18:55:00,73.8,62.1,29.95,WSW,258,0.0,0.0,67,0.00,,,0.20,VWS V14.01,2013-08-12 22:55:00,
2013-08-12 18:58:00,73.8,62.1,29.95,WSW,258,0.0,0.0,67,0.00,,,0.20,VWS V14.01,2013-08-12 22:58:00,
2013-08-12 19:00:00,73.6,62.0,29.95,WSW,258,0.0,0.0,67,0.00,,,0.20,VWS V14.01,2013-08-12 23:00:00,
2013-08-12 19:03:00,73.4,61.8,29.95,WSW,258,0.0,0.0,67,0.00,,,0.20,VWS V14.01,2013-08-12 23:03:00,
2013-08-12 19:05:00,73.4,61.8,29.95,WSW,258,0.0,0.0,67,0.00,,,0.20,VWS V14.01,2013-08-12 23:05:00,
2013-08-12 19:08:00,73.2,62.0,29.95,WSW,258,0.0,0.0,68,0.00,,,0.20,VWS V14.01,2013-08-12 23:08:00,
2013-08-12 19:10:00,73.2,62.0,29.95,WSW,258,0.0,0.0,68,0.00,,,0.20,VWS V14.01,2013-08-12 23:10:00,
2013-08-12 19:13:00,73.2,62.5,29.95,WSW,258,0.0,0.0,69,0.00,,,0.20,VWS V14.01,2013-08-12 23:13:00,
2013-08-12 19:15:00,73.2,62.5,29.95,WSW,258,0.0,0.0,69,0.00,,,0.20,VWS V14.01,2013-08-12 23:15:00,
2013-08-12 19:18:00,73.2,62.5,29.95,WSW,258,0.0,0.0,69,0.00,,,0.20,VWS V14.01,2013-08-12 23:18:00,
2013-08-12 19:20:00,73.0,62.3,29.95,WSW,258,0.0,0.0,69,0.00,,,0.20,VWS V14.01,2013-08-12 23:20:00,
2013-08-12 19:23:00,73.0,62.3,29.95,WSW,258,0.0,0.0,69,0.00,,,0.20,VWS V14.01,2013-08-12 23:23:00,
2013-08-12 19:25:00,73.0,62.3,29.95,WSW,258,0.0,0.0,69,0.00,,,0.20,VWS V14.01,2013-08-12 23:25:00,
2013-08-12 19:28:00,72.7,61.9,29.95,WSW,258,0.0,0.0,69,0.00,,,0.20,VWS V14.01,2013-08-12 23:28:00,
2013-08-12 19:30:00,72.7,61.9,29.95,WSW,258,0.0,0.0,69,0.00,,,0.20,VWS V14.01,2013-08-12 23:30:00,
2013-08-12 19:33:00,72.5,61.8,29.95,WSW,258,0.0,0.0,69,0.00,,,0.20,VWS V14.01,2013-08-12 23:33:00,
2013-08-12 19:35:00,72.5,61.8,29.95,WSW,258,0.0,0.0,69,0.00,,,0.20,VWS V14.01,2013-08-12 23:35:00,
2013-08-12 19:38:00,72.5,61.8,29.95,WSW,258,0.0,0.0,69,0.00,,,0.20,VWS V14.01,2013-08-12 23:38:00,
2013-08-12 19:40:00,72.5,61.8,29.95,WSW,258,0.0,0.0,69,0.00,,,0.20,VWS V14.01,2013-08-12 23:40:00,
2013-08-12 19:43:00,72.3,61.6,29.95,WSW,258,0.0,0.0,69,0.00,,,0.20,VWS V14.01,2013-08-12 23:43:00,
2013-08-12 19:45:00,72.3,61.6,29.95,WSW,258,0.0,0.0,69,0.00,,,0.20,VWS V14.01,2013-08-12 23:45:00,
2013-08-12 19:49:00,72.1,61.4,29.95,WSW,258,0.0,0.0,69,0.00,,,0.20,VWS V14.01,2013-08-12 23:49:00,
2013-08-12 19:50:00,72.1,61.4,29.95,WSW,258,0.0,0.0,69,0.00,,,0.20,VWS V14.01,2013-08-12 23:50:00,
2013-08-12 19:54:00,71.8,61.1,29.95,WSW,258,0.0,0.0,69,0.00,,,0.20,VWS V14.01,2013-08-12 23:54:00,
2013-08-12 19:55:00,71.8,61.1,29.95,WSW,258,0.0,0.0,69,0.00,,,0.20,VWS V14.01,2013-08-12 23:55:00,
2013-08-12 19:59:00,71.6,60.9,29.95,WSW,258,0.0,0.0,69,0.00,,,0.20,VWS V14.01,2013-08-12 23:59:00,
2013-08-12 20:00:00,71.6,60.9,29.95,WSW,258,0.0,0.0,69,0.00,,,0.20,VWS V14.01,2013-08-13 00:00:00,
2013-08-12 20:04:00,71.4,61.1,29.95,WSW,258,0.0,0.0,70,0.00,,,0.20,VWS V14.01,2013-08-13 00:04:00,
2013-08-12 20:05:00,71.2,61.0,29.95,WSW,258,0.0,0.0,70,0.00,,,0.20,VWS V14.01,2013-08-13 00:05:00,
2013-08-12 20:09:00,71.1,60.8,29.95,WSW,258,0.0,0.0,70,0.00,,,0.20,VWS V14.01,2013-08-13 00:09:00,
2013-08-12 20:10:00,71.1,60.8,29.95,WSW,258,0.0,0.0,70,0.00,,,0.20,VWS V14.01,2013-08-13 00:10:00,
2013-08-12 20:14:00,70.9,60.6,29.95,WSW,258,0.0,0.0,70,0.00,,,0.20,VWS V14.01,2013-08-13 00:14:00,
2013-08-12 20:15:00,70.9,60.6,29.95,WSW,258,0.0,0.0,70,0.00,,,0.20,VWS V14.01,2013-08-13 00:15:00,
2013-08-12 20:19:00,70.7,60.8,29.95,WSW,258,0.0,0.0,71,0.00,,,0.20,VWS V14.01,2013-08-13 00:19:00,
2013-08-12 20:20:00,70.7,60.8,29.95,WSW,258,0.0,0.0,71,0.00,,,0.20,VWS V14.01,2013-08-13 00:20:00,
2013-08-12 20:24:00,70.5,60.7,29.95,WSW,258,0.0,0.0,71,0.00,,,0.20,VWS V14.01,2013-08-13 00:24:00,
2013-08-12 20:25:00,70.5,60.7,29.95,WSW,258,0.0,0.0,71,0.00,,,0.20,VWS V14.01,2013-08-13 00:25:00,
2013-08-12 20:29:00,70.3,60.5,29.95,WSW,258,0.0,0.0,71,0.00,,,0.20,VWS V14.01,2013-08-13 00:29:00,
2013-08-12 20:30:00,70.3,60.5,29.95,WSW,258,0.0,0.0,71,0.00,,,0.20,VWS V14.01,2013-08-13 00:30:00,
2013-08-12 20:34:00,70.2,60.7,29.95,WSW,258,0.0,0.0,72,0.00,,,0.20,VWS V14.01,2013-08-13 00:34:00,
2013-08-12 20:35:00,70.2,60.7,29.95,WSW,258,0.0,0.0,72,0.00,,,0.20,VWS V14.01,2013-08-13 00:35:00,
2013-08-12 20:39:00,70.0,60.5,29.95,WSW,258,0.0,0.0,72,0.00,,,0.20,VWS V14.01,2013-08-13 00:39:00,
2013-08-12 20:40:00,70.0,60.5,29.95,WSW,258,0.0,0.0,72,0.00,,,0.20,VWS V14.01,2013-08-13 00:40:00,
2013-08-12 20:44:00,69.6,60.6,29.95,WSW,258,0.0,2.2,73,0.00,,,0.20,VWS V14.01,2013-08-13 00:44:00,
2013-08-12 20:45:00,69.6,60.6,29.95,WSW,258,0.0,2.2,73,0.00,,,0.20,VWS V14.01,2013-08-13 00:45:00,
2013-08-12 20:49:00,69.4,60.4,29.95,WSW,258,0.0,0.0,73,0.00,,,0.20,VWS V14.01,2013-08-13 00:49:00,
2013-08-12 20:50:00,69.4,60.4,29.95,WSW,258,0.0,0.0,73,0.00,,,0.20,VWS V14.01,2013-08-13 00:50:00,
2013-08-12 20:54:00,69.1,60.5,29.95,WSW,258,0.0,0.0,74,0.00,,,0.20,VWS V14.01,2013-08-13 00:54:00,
2013-08-12 20:55:00,69.1,60.5,29.95,WSW,258,0.0,0.0,74,0.00,,,0.20,VWS V14.01,2013-08-13 00:55:00,
2013-08-12 20:59:00,68.9,60.3,29.95,WSW,258,0.0,0.0,74,0.00,,,0.20,VWS V14.01,2013-08-13 00:59:00,
2013-08-12 21:00:00,68.9,60.3,29.95,WSW,258,0.0,0.0,74,0.00,,,0.20,VWS V14.01,2013-08-13 01:00:00,
2013-08-12 21:04:00,68.7,60.1,29.95,WSW,258,0.0,0.0,74,0.00,,,0.20,VWS V14.01,2013-08-13 01:04:00,
2013-08-12 21:05:00,68.7,60.1,29.95,WSW,258,0.0,0.0,74,0.00,,,0.20,VWS V14.01,2013-08-13 01:05:00,
2013-08-12 21:09:00,68.5,60.3,29.95,WSW,258,0.0,0.0,75,0.00,,,0.20,VWS V14.01,2013-08-13 01:09:00,
2013-08-12 21:10:00,68.5,60.3,29.95,WSW,258,0.0,0.0,75,0.00,,,0.20,VWS V14.01,2013-08-13 01:10:00,
2013-08-12 21:14:00,68.5,60.7,29.95,WSW,258,0.0,0.0,76,0.00,,,0.20,VWS V14.01,2013-08-13 01:14:00,
2013-08-12 21:15:00,68.5,60.7,29.95,WSW,258,0.0,0.0,76,0.00,,,0.20,VWS V14.01,2013-08-13 01:15:00,
2013-08-12 21:19:00,68.5,60.7,29.95,WSW,258,0.0,0.0,76,0.00,,,0.20,VWS V14.01,2013-08-13 01:19:00,
2013-08-12 21:20:00,68.5,60.7,29.95,WSW,258,0.0,0.0,76,0.00,,,0.20,VWS V14.01,2013-08-13 01:20:00,
2013-08-12 21:24:00,68.2,60.3,29.95,WSW,258,0.0,0.0,76,0.00,,,0.20,VWS V14.01,2013-08-13 01:24:00,
2013-08-12 21:25:00,68.2,60.3,29.95,WSW,258,0.0,0.0,76,0.00,,,0.20,VWS V14.01,2013-08-13 01:25:00,
2013-08-12 21:29:00,68.0,60.2,29.95,WSW,258,0.0,0.0,76,0.00,,,0.20,VWS V14.01,2013-08-13 01:29:00,
2013-08-12 21:30:00,68.0,60.2,29.95,WSW,258,0.0,0.0,76,0.00,,,0.20,VWS V14.01,2013-08-13 01:30:00,
2013-08-12 21:34:00,67.8,60.3,29.95,WSW,258,0.0,0.0,77,0.00,,,0.20,VWS V14.01,2013-08-13 01:34:00,
2013-08-12 21:35:00,67.8,60.3,29.95,WSW,258,0.0,0.0,77,0.00,,,0.20,VWS V14.01,2013-08-13 01:35:00,
2013-08-12 21:39:00,67.6,60.5,29.95,WSW,258,0.0,0.0,78,0.00,,,0.20,VWS V14.01,2013-08-13 01:39:00,
2013-08-12 21:40:00,67.6,60.5,29.95,WSW,258,0.0,0.0,78,0.00,,,0.20,VWS V14.01,2013-08-13 01:40:00,
2013-08-12 21:44:00,67.6,60.5,29.95,WSW,258,0.0,0.0,78,0.00,,,0.20,VWS V14.01,2013-08-13 01:44:00,
2013-08-12 21:45:00,67.6,60.5,29.95,WSW,258,0.0,0.0,78,0.00,,,0.20,VWS V14.01,2013-08-13 01:45:00,
2013-08-12 21:49:00,67.3,60.2,29.95,WSW,258,0.0,0.0,78,0.00,,,0.20,VWS V14.01,2013-08-13 01:49:00,
2013-08-12 21:50:00,67.3,60.2,29.95,WSW,258,0.0,0.0,78,0.00,,,0.20,VWS V14.01,2013-08-13 01:50:00,
2013-08-12 21:54:00,67.3,60.5,29.95,WSW,258,0.0,0.0,79,0.00,,,0.20,VWS V14.01,2013-08-13 01:54:00,
2013-08-12 21:55:00,67.3,60.5,29.95,WSW,258,0.0,0.0,79,0.00,,,0.20,VWS V14.01,2013-08-13 01:55:00,
2013-08-12 21:59:00,67.1,60.4,29.95,WSW,258,0.0,0.0,79,0.00,,,0.00,VWS V14.01,2013-08-13 01:59:00,
2013-08-12 22:00:00,67.1,60.4,29.95,WSW,258,0.0,0.0,79,0.00,,,0.20,VWS V14.01,2013-08-13 02:00:00,
2013-08-12 22:04:00,66.9,60.2,29.95,WSW,258,0.0,0.0,79,0.00,,,0.20,VWS V14.01,2013-08-13 02:04:00,
2013-08-12 22:05:00,66.9,60.2,29.95,WSW,258,0.0,0.0,79,0.00,,,0.20,VWS V14.01,2013-08-13 02:05:00,
2013-08-12 22:09:00,66.7,60.0,29.95,WSW,258,0.0,0.0,79,0.00,,,0.20,VWS V14.01,2013-08-13 02:09:00,
2013-08-12 22:10:00,66.7,60.0,29.95,WSW,258,0.0,0.0,79,0.00,,,0.20,VWS V14.01,2013-08-13 02:10:00,
2013-08-12 22:14:00,66.7,60.4,29.95,WSW,258,0.0,0.0,80,0.00,,,0.20,VWS V14.01,2013-08-13 02:14:00,
2013-08-12 22:15:00,66.7,60.4,29.95,WSW,258,0.0,0.0,80,0.00,,,0.20,VWS V14.01,2013-08-13 02:15:00,
2013-08-12 22:19:00,66.4,60.0,29.95,WSW,258,0.0,0.0,80,0.00,,,0.20,VWS V14.01,2013-08-13 02:19:00,
2013-08-12 22:20:00,66.4,60.0,29.95,WSW,258,0.0,0.0,80,0.00,,,0.20,VWS V14.01,2013-08-13 02:20:00,
2013-08-12 22:24:00,66.4,60.0,29.95,WSW,258,0.0,0.0,80,0.00,,,0.20,VWS V14.01,2013-08-13 02:24:00,
2013-08-12 22:25:00,66.4,60.0,29.95,WSW,258,0.0,0.0,80,0.00,,,0.20,VWS V14.01,2013-08-13 02:25:00,
2013-08-12 22:29:00,66.2,59.9,29.95,WSW,258,0.0,0.0,80,0.00,,,0.20,VWS V14.01,2013-08-13 02:29:00,
2013-08-12 22:30:00,66.2,59.9,29.95,WSW,258,0.0,0.0,80,0.00,,,0.20,VWS V14.01,2013-08-13 02:30:00,
2013-08-12 22:34:00,66.2,59.9,29.95,WSW,258,0.0,0.0,80,0.00,,,0.20,VWS V14.01,2013-08-13 02:34:00,
2013-08-12 22:35:00,66.2,59.9,29.95,WSW,258,0.0,0.0,80,0.00,,,0.20,VWS V14.01,2013-08-13 02:35:00,
2013-08-12 22:39:00,66.2,60.2,29.95,WSW,258,0.0,0.0,81,0.00,,,0.20,VWS V14.01,2013-08-13 02:39:00,
2013-08-12 22:40:00,66.2,60.2,29.95,WSW,258,0.0,0.0,81,0.00,,,0.20,VWS V14.01,2013-08-13 02:40:00,
2013-08-12 22:44:00,66.0,60.0,29.95,WSW,258,0.0,0.0,81,0.00,,,0.20,VWS V14.01,2013-08-13 02:44:00,
2013-08-12 22:45:00,66.0,60.0,29.95,WSW,258,0.0,0.0,81,0.00,,,0.20,VWS V14.01,2013-08-13 02:45:00,
2013-08-12 22:49:00,65.8,59.8,29.95,WSW,258,0.0,0.0,81,0.00,,,0.20,VWS V14.01,2013-08-13 02:49:00,
2013-08-12 22:50:00,65.8,59.8,29.95,WSW,258,0.0,0.0,81,0.00,,,0.20,VWS V14.01,2013-08-13 02:50:00,
2013-08-12 22:54:00,65.8,60.2,29.92,WSW,258,0.0,0.0,82,0.00,,,0.20,VWS V14.01,2013-08-13 02:54:00,
2013-08-12 22:55:00,65.8,60.2,29.92,WSW,258,0.0,0.0,82,0.00,,,0.20,VWS V14.01,2013-08-13 02:55:00,
2013-08-12 22:59:00,65.8,60.2,29.92,WSW,258,0.0,0.0,82,0.00,,,0.20,VWS V14.01,2013-08-13 02:59:00,
2013-08-12 23:00:00,65.8,60.2,29.92,WSW,258,0.0,0.0,82,0.00,,,0.20,VWS V14.01,2013-08-13 03:00:00,
2013-08-12 23:04:00,65.7,60.0,29.92,WSW,258,0.0,0.0,82,0.00,,,0.20,VWS V14.01,2013-08-13 03:04:00,
2013-08-12 23:05:00,65.7,60.0,29.92,WSW,258,0.0,0.0,82,0.00,,,0.20,VWS V14.01,2013-08-13 03:05:00,
2013-08-12 23:09:00,65.5,59.8,29.95,WSW,258,0.0,0.0,82,0.00,,,0.20,VWS V14.01,2013-08-13 03:09:00,
2013-08-12 23:10:00,65.5,59.8,29.95,WSW,258,0.0,0.0,82,0.00,,,0.20,VWS V14.01,2013-08-13 03:10:00,
2013-08-12 23:14:00,65.3,59.7,29.95,WSW,258,0.0,0.0,82,0.00,,,0.20,VWS V14.01,2013-08-13 03:14:00,
2013-08-12 23:15:00,65.3,59.7,29.95,WSW,258,0.0,0.0,82,0.00,,,0.20,VWS V14.01,2013-08-13 03:15:00,
2013-08-12 23:19:00,65.3,59.7,29.95,WSW,258,0.0,0.0,82,0.00,,,0.20,VWS V14.01,2013-08-13 03:19:00,
2013-08-12 23:20:00,65.3,59.7,29.95,WSW,258,0.0,0.0,82,0.00,,,0.20,VWS V14.01,2013-08-13 03:20:00,
2013-08-12 23:24:00,65.3,59.7,29.95,WSW,258,0.0,0.0,82,0.00,,,0.20,VWS V14.01,2013-08-13 03:24:00,
2013-08-12 23:25:00,65.3,59.7,29.95,WSW,258,0.0,0.0,82,0.00,,,0.20,VWS V14.01,2013-08-13 03:25:00,
2013-08-12 23:30:00,65.3,60.0,29.95,WSW,258,0.0,0.0,83,0.00,,,0.20,VWS V14.01,2013-08-13 03:30:00,
2013-08-12 23:35:00,65.1,59.8,29.95,WSW,258,0.0,0.0,83,0.00,,,0.20,VWS V14.01,2013-08-13 03:35:00,
2013-08-12 23:40:00,64.9,59.7,29.95,WSW,258,0.0,0.0,83,0.00,,,0.20,VWS V14.01,2013-08-13 03:40:00,
2013-08-12 23:45:00,65.1,59.8,29.95,WSW,258,0.0,0.0,83,0.00,,,0.20,VWS V14.01,2013-08-13 03:45:00,
2013-08-12 23:50:00,65.1,59.8,29.95,WSW,258,0.0,0.0,83,0.00,,,0.20,VWS V14.01,2013-08-13 03:50:00,
2013-08-12 23:53:00,64.9,59.7,29.95,WSW,258,0.0,0.0,83,0.00,,,0.20,VWS V14.01,2013-08-13 03:53:00,
2013-08-12 23:55:00,64.8,59.5,29.95,WSW,258,0.0,0.0,83,0.00,,,0.20,VWS V14.01,2013-08-13 03:55:00,
2013-08-12 23:58:00,64.8,59.5,29.95,WSW,258,0.0,0.0,83,0.00,,,0.20,VWS V14.01,2013-08-13 03:58:00,